contact:dominique.lefevre@mio.osupytheas.fr, maurice.libes@osupytheas.fr, didier.mallarino@osupytheas.fr
Project:EMSO http://www.emso-fr.org/EMSO-France
Depth: 2436.0 m
Title:EMSO Ligure Ouest : Data MII capteur MICROCAT
DateTime_Computer,Latitude,Longitude,Temperature,Conductivity,Pressure,DateTime_Instrument
DateTime_Computer,Latitude,Longitude,degC,S m-1,dbar,DateTime_Instrument
2022-02-13T00:00:05Z,42.805,6.029,13.2998,4.60023,2470.413,2022-2-13T02:01:38Z
2022-02-13T00:03:08Z,42.805,6.029,13.2996,4.60021,2470.413,2022-2-13T02:04:41Z
2022-02-13T00:06:11Z,42.805,6.029,13.2993,4.60022,2470.45,2022-2-13T02:07:44Z
2022-02-13T00:09:14Z,42.805,6.029,13.2994,4.60021,2470.413,2022-2-13T02:10:47Z
2022-02-13T00:12:17Z,42.805,6.029,13.2999,4.60021,2470.413,2022-2-13T02:13:51Z
2022-02-13T00:15:20Z,42.805,6.029,13.2993,4.60021,2470.45,2022-2-13T02:16:54Z
2022-02-13T00:18:23Z,42.805,6.029,13.2993,4.60021,2470.45,2022-2-13T02:19:57Z
2022-02-13T00:21:27Z,42.805,6.029,13.2993,4.60020,2470.437,2022-2-13T02:23:00Z
2022-02-13T00:24:30Z,42.805,6.029,13.2995,4.60021,2470.437,2022-2-13T02:26:03Z
2022-02-13T00:27:33Z,42.805,6.029,13.2996,4.60021,2470.45,2022-2-13T02:29:06Z
2022-02-13T00:30:36Z,42.805,6.029,13.2996,4.60021,2470.437,2022-2-13T02:32:09Z
2022-02-13T00:33:39Z,42.805,6.029,13.2994,4.60022,2470.46,2022-2-13T02:35:12Z
2022-02-13T00:36:42Z,42.805,6.029,13.2995,4.60022,2470.437,2022-2-13T02:38:16Z
2022-02-13T00:39:45Z,42.805,6.029,13.2996,4.60021,2470.45,2022-2-13T02:41:19Z
2022-02-13T00:42:48Z,42.805,6.029,13.2998,4.60022,2470.437,2022-2-13T02:44:22Z
2022-02-13T00:45:52Z,42.805,6.029,13.2995,4.60021,2470.413,2022-2-13T02:47:25Z
2022-02-13T00:48:55Z,42.805,6.029,13.2996,4.60022,2470.437,2022-2-13T02:50:28Z
2022-02-13T00:51:58Z,42.805,6.029,13.2999,4.60022,2470.474,2022-2-13T02:53:31Z
2022-02-13T00:55:01Z,42.805,6.029,13.2997,4.60022,2470.46,2022-2-13T02:56:34Z
2022-02-13T00:58:04Z,42.805,6.029,13.2996,4.60022,2470.474,2022-2-13T02:59:37Z
2022-02-13T01:01:07Z,42.805,6.029,13.2998,4.60021,2470.46,2022-2-13T03:02:41Z
2022-02-13T01:04:10Z,42.805,6.029,13.2995,4.60023,2470.45,2022-2-13T03:05:44Z
2022-02-13T01:07:13Z,42.805,6.029,13.2994,4.60023,2470.437,2022-2-13T03:08:47Z
2022-02-13T01:10:17Z,42.805,6.029,13.2996,4.60021,2470.437,2022-2-13T03:11:50Z
2022-02-13T01:13:20Z,42.805,6.029,13.2992,4.60023,2470.52,2022-2-13T03:14:53Z
2022-02-13T01:16:23Z,42.805,6.029,13.2997,4.60021,2470.46,2022-2-13T03:17:56Z
2022-02-13T01:19:26Z,42.805,6.029,13.2994,4.60021,2470.46,2022-2-13T03:20:59Z
2022-02-13T01:22:29Z,42.805,6.029,13.2996,4.60021,2470.46,2022-2-13T03:24:02Z
2022-02-13T01:25:32Z,42.805,6.029,13.2995,4.60023,2470.437,2022-2-13T03:27:06Z
2022-02-13T01:28:35Z,42.805,6.029,13.2996,4.60022,2470.46,2022-2-13T03:30:09Z
2022-02-13T01:31:38Z,42.805,6.029,13.2996,4.60021,2470.46,2022-2-13T03:33:12Z
2022-02-13T01:34:42Z,42.805,6.029,13.2992,4.60023,2470.46,2022-2-13T03:36:15Z
2022-02-13T01:37:45Z,42.805,6.029,13.2993,4.60022,2470.46,2022-2-13T03:39:18Z
2022-02-13T01:40:48Z,42.805,6.029,13.2995,4.60023,2470.474,2022-2-13T03:42:21Z
2022-02-13T01:43:51Z,42.805,6.029,13.2994,4.60021,2470.46,2022-2-13T03:45:24Z
2022-02-13T01:46:54Z,42.805,6.029,13.2998,4.60022,2470.46,2022-2-13T03:48:27Z
2022-02-13T01:49:57Z,42.805,6.029,13.2993,4.60022,2470.497,2022-2-13T03:51:31Z
2022-02-13T01:53:00Z,42.805,6.029,13.2995,4.60023,2470.46,2022-2-13T03:54:34Z
2022-02-13T01:56:03Z,42.805,6.029,13.2995,4.60022,2470.47,2022-2-13T03:57:37Z
2022-02-13T01:59:07Z,42.805,6.029,13.2998,4.60021,2470.507,2022-2-13T04:00:40Z
2022-02-13T02:02:10Z,42.805,6.029,13.2994,4.60021,2470.507,2022-2-13T04:03:43Z
2022-02-13T02:05:13Z,42.805,6.029,13.2992,4.60023,2470.497,2022-2-13T04:06:46Z
2022-02-13T02:08:16Z,42.805,6.029,13.2995,4.60022,2470.507,2022-2-13T04:09:49Z
2022-02-13T02:11:19Z,42.805,6.029,13.2995,4.60022,2470.483,2022-2-13T04:12:52Z
2022-02-13T02:14:22Z,42.805,6.029,13.2994,4.60023,2470.507,2022-2-13T04:15:56Z
2022-02-13T02:17:25Z,42.805,6.029,13.2994,4.60021,2470.493,2022-2-13T04:18:59Z
2022-02-13T02:20:28Z,42.805,6.029,13.2992,4.60025,2470.507,2022-2-13T04:22:02Z
2022-02-13T02:23:32Z,42.805,6.029,13.2995,4.60024,2470.52,2022-2-13T04:25:05Z
2022-02-13T02:26:35Z,42.805,6.029,13.2993,4.60022,2470.52,2022-2-13T04:28:08Z
2022-02-13T02:29:38Z,42.805,6.029,13.2994,4.60023,2470.497,2022-2-13T04:31:11Z
2022-02-13T02:32:41Z,42.805,6.029,13.2994,4.60023,2470.52,2022-2-13T04:34:14Z
2022-02-13T02:35:44Z,42.805,6.029,13.2993,4.60022,2470.53,2022-2-13T04:37:17Z
2022-02-13T02:38:47Z,42.805,6.029,13.2995,4.60023,2470.507,2022-2-13T04:40:20Z
2022-02-13T02:41:50Z,42.805,6.029,13.2993,4.60023,2470.507,2022-2-13T04:43:24Z
2022-02-13T02:44:53Z,42.805,6.029,13.2998,4.60024,2470.53,2022-2-13T04:46:27Z
2022-02-13T02:47:56Z,42.805,6.029,13.2998,4.60022,2470.553,2022-2-13T04:49:30Z
2022-02-13T02:51:00Z,42.805,6.029,13.2994,4.60024,2470.507,2022-2-13T04:52:33Z
2022-02-13T02:54:03Z,42.805,6.029,13.2996,4.60022,2470.544,2022-2-13T04:55:36Z
2022-02-13T02:57:06Z,42.805,6.029,13.2997,4.60022,2470.53,2022-2-13T04:58:39Z
2022-02-13T03:00:09Z,42.805,6.029,13.2995,4.60022,2470.507,2022-2-13T05:01:42Z
2022-02-13T03:03:12Z,42.805,6.029,13.2998,4.60025,2470.577,2022-2-13T05:04:45Z
2022-02-13T03:06:15Z,42.805,6.029,13.3000,4.60023,2470.553,2022-2-13T05:07:49Z
2022-02-13T03:09:18Z,42.805,6.029,13.2998,4.60023,2470.544,2022-2-13T05:10:52Z
2022-02-13T03:12:21Z,42.805,6.029,13.2993,4.60023,2470.553,2022-2-13T05:13:55Z
2022-02-13T03:15:25Z,42.805,6.029,13.2996,4.60024,2470.53,2022-2-13T05:16:58Z
2022-02-13T03:18:28Z,42.805,6.029,13.2994,4.60022,2470.553,2022-2-13T05:20:01Z
2022-02-13T03:21:31Z,42.805,6.029,13.2996,4.60025,2470.591,2022-2-13T05:23:04Z
2022-02-13T03:24:34Z,42.805,6.029,13.2993,4.60022,2470.553,2022-2-13T05:26:07Z
2022-02-13T03:27:37Z,42.805,6.029,13.2998,4.60022,2470.553,2022-2-13T05:29:10Z
2022-02-13T03:30:40Z,42.805,6.029,13.2995,4.60022,2470.553,2022-2-13T05:32:14Z
2022-02-13T03:33:43Z,42.805,6.029,13.2993,4.60024,2470.567,2022-2-13T05:35:17Z
2022-02-13T03:36:46Z,42.805,6.029,13.2993,4.60023,2470.577,2022-2-13T05:38:20Z
2022-02-13T03:39:50Z,42.805,6.029,13.2993,4.60022,2470.577,2022-2-13T05:41:23Z
2022-02-13T03:42:53Z,42.805,6.029,13.2996,4.60024,2470.591,2022-2-13T05:44:26Z
2022-02-13T03:45:56Z,42.805,6.029,13.2999,4.60024,2470.577,2022-2-13T05:47:29Z
2022-02-13T03:48:59Z,42.805,6.029,13.2998,4.60024,2470.614,2022-2-13T05:50:32Z
2022-02-13T03:52:02Z,42.805,6.029,13.2993,4.60023,2470.553,2022-2-13T05:53:35Z
2022-02-13T03:55:05Z,42.805,6.029,13.2996,4.60023,2470.539,2022-2-13T05:56:39Z
2022-02-13T03:58:08Z,42.805,6.029,13.2993,4.60023,2470.6,2022-2-13T05:59:42Z
2022-02-13T04:01:11Z,42.805,6.029,13.2993,4.60022,2470.553,2022-2-13T06:02:45Z
2022-02-13T04:04:15Z,42.805,6.029,13.2995,4.60023,2470.591,2022-2-13T06:05:48Z
2022-02-13T04:07:18Z,42.805,6.029,13.2996,4.60023,2470.577,2022-2-13T06:08:51Z
2022-02-13T04:10:21Z,42.805,6.029,13.2993,4.60021,2470.6,2022-2-13T06:11:54Z
2022-02-13T04:13:24Z,42.805,6.029,13.2995,4.60022,2470.624,2022-2-13T06:14:57Z
2022-02-13T04:16:27Z,42.805,6.029,13.2996,4.60022,2470.614,2022-2-13T06:18:00Z
2022-02-13T04:19:30Z,42.805,6.029,13.2993,4.60021,2470.6,2022-2-13T06:21:03Z
2022-02-13T04:22:33Z,42.805,6.029,13.2998,4.60024,2470.624,2022-2-13T06:24:07Z
2022-02-13T04:25:36Z,42.805,6.029,13.2993,4.60023,2470.614,2022-2-13T06:27:10Z
2022-02-13T04:28:40Z,42.805,6.029,13.2996,4.60024,2470.591,2022-2-13T06:30:13Z
2022-02-13T04:31:43Z,42.805,6.029,13.2998,4.60023,2470.6,2022-2-13T06:33:16Z
2022-02-13T04:34:46Z,42.805,6.029,13.2994,4.60025,2470.6,2022-2-13T06:36:19Z
2022-02-13T04:37:49Z,42.805,6.029,13.2994,4.60022,2470.6,2022-2-13T06:39:22Z
2022-02-13T04:40:52Z,42.805,6.029,13.2994,4.60024,2470.553,2022-2-13T06:42:25Z
2022-02-13T04:43:55Z,42.805,6.029,13.2996,4.60023,2470.624,2022-2-13T06:45:28Z
2022-02-13T04:46:58Z,42.805,6.029,13.2996,4.60023,2470.67,2022-2-13T06:48:32Z
2022-02-13T04:50:01Z,42.805,6.029,13.2994,4.60024,2470.624,2022-2-13T06:51:35Z
2022-02-13T04:53:04Z,42.805,6.029,13.2999,4.60024,2470.614,2022-2-13T06:54:38Z
2022-02-13T04:56:08Z,42.805,6.029,13.2996,4.60023,2470.646,2022-2-13T06:57:41Z
2022-02-13T04:59:11Z,42.805,6.029,13.2993,4.60022,2470.624,2022-2-13T07:00:44Z
2022-02-13T05:02:14Z,42.805,6.029,13.2996,4.60024,2470.6,2022-2-13T07:03:47Z
2022-02-13T05:05:17Z,42.805,6.029,13.2993,4.60022,2470.624,2022-2-13T07:06:50Z
2022-02-13T05:08:20Z,42.805,6.029,13.2993,4.60024,2470.624,2022-2-13T07:09:53Z
2022-02-13T05:11:23Z,42.805,6.029,13.2991,4.60023,2470.6,2022-2-13T07:12:57Z
2022-02-13T05:14:26Z,42.805,6.029,13.2996,4.60024,2470.624,2022-2-13T07:16:00Z
2022-02-13T05:17:29Z,42.805,6.029,13.2995,4.60023,2470.646,2022-2-13T07:19:03Z
2022-02-13T05:20:33Z,42.805,6.029,13.2994,4.60021,2470.661,2022-2-13T07:22:06Z
2022-02-13T05:23:36Z,42.805,6.029,13.2995,4.60023,2470.624,2022-2-13T07:25:09Z
2022-02-13T05:26:39Z,42.805,6.029,13.2996,4.60022,2470.6,2022-2-13T07:28:12Z
2022-02-13T05:29:42Z,42.805,6.029,13.3000,4.60025,2470.646,2022-2-13T07:31:15Z
2022-02-13T05:32:45Z,42.805,6.029,13.2997,4.60024,2470.624,2022-2-13T07:34:18Z
2022-02-13T05:35:48Z,42.805,6.029,13.2996,4.60024,2470.624,2022-2-13T07:37:22Z
2022-02-13T05:38:51Z,42.805,6.029,13.2993,4.60024,2470.6,2022-2-13T07:40:25Z
2022-02-13T05:41:54Z,42.805,6.029,13.2993,4.60024,2470.646,2022-2-13T07:43:28Z
2022-02-13T05:44:58Z,42.805,6.029,13.2993,4.60024,2470.624,2022-2-13T07:46:31Z
2022-02-13T05:48:01Z,42.805,6.029,13.2996,4.60023,2470.661,2022-2-13T07:49:34Z
2022-02-13T05:51:04Z,42.805,6.029,13.2996,4.60024,2470.646,2022-2-13T07:52:37Z
2022-02-13T05:54:07Z,42.805,6.029,13.2993,4.60023,2470.646,2022-2-13T07:55:40Z
2022-02-13T05:57:10Z,42.805,6.029,13.2996,4.60025,2470.646,2022-2-13T07:58:43Z
2022-02-13T06:00:13Z,42.805,6.029,13.2995,4.60022,2470.637,2022-2-13T08:01:47Z
2022-02-13T06:03:16Z,42.805,6.029,13.2994,4.60024,2470.637,2022-2-13T08:04:50Z
2022-02-13T06:06:19Z,42.805,6.029,13.2997,4.60025,2470.661,2022-2-13T08:07:53Z
2022-02-13T06:09:23Z,42.805,6.029,13.2996,4.60023,2470.661,2022-2-13T08:10:56Z
2022-02-13T06:12:26Z,42.805,6.029,13.2992,4.60022,2470.637,2022-2-13T08:13:59Z
2022-02-13T06:15:29Z,42.805,6.029,13.2996,4.60024,2470.6,2022-2-13T08:17:02Z
2022-02-13T06:18:32Z,42.805,6.029,13.2996,4.60024,2470.624,2022-2-13T08:20:05Z
2022-02-13T06:21:35Z,42.805,6.029,13.3000,4.60023,2470.614,2022-2-13T08:23:08Z
2022-02-13T06:24:38Z,42.805,6.029,13.2996,4.60022,2470.6,2022-2-13T08:26:12Z
2022-02-13T06:27:41Z,42.805,6.029,13.2994,4.60023,2470.661,2022-2-13T08:29:15Z
2022-02-13T06:30:44Z,42.805,6.029,13.2993,4.60025,2470.661,2022-2-13T08:32:18Z
2022-02-13T06:33:48Z,42.805,6.029,13.2998,4.60024,2470.637,2022-2-13T08:35:21Z
2022-02-13T06:36:51Z,42.805,6.029,13.2994,4.60024,2470.646,2022-2-13T08:38:24Z
2022-02-13T06:39:54Z,42.805,6.029,13.2998,4.60024,2470.637,2022-2-13T08:41:27Z
2022-02-13T06:42:57Z,42.805,6.029,13.2995,4.60023,2470.61,2022-2-13T08:44:30Z
2022-02-13T06:46:00Z,42.805,6.029,13.2994,4.60023,2470.646,2022-2-13T08:47:33Z
2022-02-13T06:49:03Z,42.805,6.029,13.2998,4.60023,2470.637,2022-2-13T08:50:37Z
2022-02-13T06:52:06Z,42.805,6.029,13.2994,4.60023,2470.637,2022-2-13T08:53:40Z
2022-02-13T06:55:09Z,42.805,6.029,13.2998,4.60024,2470.637,2022-2-13T08:56:43Z
2022-02-13T06:58:13Z,42.805,6.029,13.2996,4.60022,2470.6,2022-2-13T08:59:46Z
2022-02-13T07:01:16Z,42.805,6.029,13.2997,4.60024,2470.661,2022-2-13T09:02:49Z
2022-02-13T07:04:19Z,42.805,6.029,13.3000,4.60023,2470.646,2022-2-13T09:05:52Z
2022-02-13T07:07:22Z,42.805,6.029,13.2995,4.60023,2470.637,2022-2-13T09:08:55Z
2022-02-13T07:10:25Z,42.805,6.029,13.2993,4.60024,2470.637,2022-2-13T09:11:58Z
2022-02-13T07:13:28Z,42.805,6.029,13.2995,4.60023,2470.6,2022-2-13T09:15:02Z
2022-02-13T07:16:31Z,42.805,6.029,13.2996,4.60024,2470.6,2022-2-13T09:18:05Z
2022-02-13T07:19:34Z,42.805,6.029,13.2996,4.60023,2470.661,2022-2-13T09:21:08Z
2022-02-13T07:22:37Z,42.805,6.029,13.2996,4.60024,2470.637,2022-2-13T09:24:11Z
2022-02-13T07:25:41Z,42.805,6.029,13.2992,4.60023,2470.624,2022-2-13T09:27:14Z
2022-02-13T07:28:44Z,42.805,6.029,13.2998,4.60023,2470.624,2022-2-13T09:30:17Z
2022-02-13T07:31:47Z,42.805,6.029,13.2998,4.60022,2470.614,2022-2-13T09:33:20Z
2022-02-13T07:34:50Z,42.805,6.029,13.2996,4.60023,2470.646,2022-2-13T09:36:23Z
2022-02-13T07:37:53Z,42.805,6.029,13.2995,4.60022,2470.637,2022-2-13T09:39:26Z
2022-02-13T07:40:56Z,42.805,6.029,13.2996,4.60024,2470.646,2022-2-13T09:42:30Z
2022-02-13T07:43:59Z,42.805,6.029,13.2995,4.60023,2470.661,2022-2-13T09:45:33Z
2022-02-13T07:47:03Z,42.805,6.029,13.2998,4.60024,2470.577,2022-2-13T09:48:36Z
2022-02-13T07:50:06Z,42.805,6.029,13.2993,4.60024,2470.6,2022-2-13T09:51:39Z
2022-02-13T07:53:09Z,42.805,6.029,13.3000,4.60021,2470.624,2022-2-13T09:54:42Z
2022-02-13T07:56:12Z,42.805,6.029,13.2996,4.60024,2470.646,2022-2-13T09:57:45Z
2022-02-13T07:59:15Z,42.805,6.029,13.2994,4.60024,2470.624,2022-2-13T10:00:48Z
2022-02-13T08:02:18Z,42.805,6.029,13.2994,4.60023,2470.646,2022-2-13T10:03:51Z
2022-02-13T08:05:21Z,42.805,6.029,13.2994,4.60022,2470.6,2022-2-13T10:06:55Z
2022-02-13T08:08:24Z,42.805,6.029,13.2993,4.60024,2470.6,2022-2-13T10:09:58Z
2022-02-13T08:11:27Z,42.805,6.029,13.2995,4.60022,2470.6,2022-2-13T10:13:01Z
2022-02-13T08:14:31Z,42.805,6.029,13.2997,4.60023,2470.614,2022-2-13T10:16:04Z
2022-02-13T08:17:34Z,42.805,6.029,13.2995,4.60023,2470.624,2022-2-13T10:19:07Z
2022-02-13T08:20:37Z,42.805,6.029,13.2996,4.60024,2470.614,2022-2-13T10:22:10Z
2022-02-13T08:23:40Z,42.805,6.029,13.2997,4.60023,2470.624,2022-2-13T10:25:13Z
2022-02-13T08:26:43Z,42.805,6.029,13.2995,4.60022,2470.637,2022-2-13T10:28:16Z
2022-02-13T08:29:46Z,42.805,6.029,13.2995,4.60024,2470.577,2022-2-13T10:31:20Z
2022-02-13T08:32:49Z,42.805,6.029,13.2993,4.60022,2470.614,2022-2-13T10:34:23Z
2022-02-13T08:35:53Z,42.805,6.029,13.2994,4.60023,2470.646,2022-2-13T10:37:26Z
2022-02-13T08:38:56Z,42.805,6.029,13.2995,4.60024,2470.6,2022-2-13T10:40:29Z
2022-02-13T08:41:59Z,42.805,6.029,13.2998,4.60025,2470.6,2022-2-13T10:43:32Z
2022-02-13T08:45:02Z,42.805,6.029,13.2998,4.60023,2470.6,2022-2-13T10:46:35Z
2022-02-13T08:48:05Z,42.805,6.029,13.2993,4.60024,2470.577,2022-2-13T10:49:38Z
2022-02-13T08:51:08Z,42.805,6.029,13.2998,4.60022,2470.577,2022-2-13T10:52:42Z
2022-02-13T08:54:11Z,42.805,6.029,13.2996,4.60023,2470.6,2022-2-13T10:55:45Z
2022-02-13T08:57:14Z,42.805,6.029,13.2995,4.60021,2470.614,2022-2-13T10:58:48Z
2022-02-13T09:00:18Z,42.805,6.029,13.2994,4.60023,2470.614,2022-2-13T11:01:51Z
2022-02-13T09:03:21Z,42.805,6.029,13.2996,4.60024,2470.624,2022-2-13T11:04:54Z
2022-02-13T09:06:24Z,42.805,6.029,13.2997,4.60024,2470.553,2022-2-13T11:07:57Z
2022-02-13T09:09:27Z,42.805,6.029,13.2998,4.60024,2470.577,2022-2-13T11:11:00Z
2022-02-13T09:12:30Z,42.805,6.029,13.2997,4.60024,2470.577,2022-2-13T11:14:03Z
2022-02-13T09:15:33Z,42.805,6.029,13.3000,4.60022,2470.614,2022-2-13T11:17:07Z
2022-02-13T09:18:36Z,42.805,6.029,13.2998,4.60024,2470.6,2022-2-13T11:20:10Z
2022-02-13T09:21:39Z,42.805,6.029,13.2993,4.60024,2470.577,2022-2-13T11:23:13Z
2022-02-13T09:24:43Z,42.805,6.029,13.2996,4.60024,2470.553,2022-2-13T11:26:16Z
2022-02-13T09:27:46Z,42.805,6.029,13.2996,4.60023,2470.567,2022-2-13T11:29:19Z
2022-02-13T09:30:49Z,42.805,6.029,13.2997,4.60023,2470.6,2022-2-13T11:32:22Z
2022-02-13T09:33:52Z,42.805,6.029,13.2996,4.60023,2470.591,2022-2-13T11:35:25Z
2022-02-13T09:36:55Z,42.805,6.029,13.2995,4.60023,2470.577,2022-2-13T11:38:28Z
2022-02-13T09:39:58Z,42.805,6.029,13.2993,4.60023,2470.577,2022-2-13T11:41:32Z
2022-02-13T09:43:01Z,42.805,6.029,13.2996,4.60022,2470.577,2022-2-13T11:44:35Z
2022-02-13T09:46:04Z,42.805,6.029,13.2998,4.60025,2470.577,2022-2-13T11:47:38Z
2022-02-13T09:49:08Z,42.805,6.029,13.2999,4.60025,2470.577,2022-2-13T11:50:41Z
2022-02-13T09:52:11Z,42.805,6.029,13.2997,4.60022,2470.577,2022-2-13T11:53:44Z
2022-02-13T09:55:14Z,42.805,6.029,13.2996,4.60023,2470.567,2022-2-13T11:56:47Z
2022-02-13T09:58:17Z,42.805,6.029,13.2996,4.60024,2470.553,2022-2-13T11:59:50Z
2022-02-13T10:01:20Z,42.805,6.029,13.2990,4.60022,2470.591,2022-2-13T12:02:53Z
2022-02-13T10:04:23Z,42.805,6.029,13.2998,4.60023,2470.577,2022-2-13T12:05:57Z
2022-02-13T10:07:26Z,42.805,6.029,13.2993,4.60023,2470.577,2022-2-13T12:09:00Z
2022-02-13T10:10:29Z,42.805,6.029,13.2994,4.60023,2470.553,2022-2-13T12:12:03Z
2022-02-13T10:13:33Z,42.805,6.029,13.2998,4.60022,2470.577,2022-2-13T12:15:06Z
2022-02-13T10:16:36Z,42.805,6.029,13.2995,4.60023,2470.567,2022-2-13T12:18:09Z
2022-02-13T10:19:39Z,42.805,6.029,13.2997,4.60022,2470.553,2022-2-13T12:21:12Z
2022-02-13T10:22:42Z,42.805,6.029,13.2993,4.60022,2470.553,2022-2-13T12:24:15Z
2022-02-13T10:25:45Z,42.805,6.029,13.2993,4.60023,2470.553,2022-2-13T12:27:19Z
2022-02-13T10:28:48Z,42.805,6.029,13.2997,4.60024,2470.577,2022-2-13T12:30:22Z
2022-02-13T10:31:51Z,42.805,6.029,13.2996,4.60023,2470.553,2022-2-13T12:33:25Z
2022-02-13T10:34:55Z,42.805,6.029,13.2997,4.60023,2470.577,2022-2-13T12:36:28Z
2022-02-13T10:37:58Z,42.805,6.029,13.2994,4.60023,2470.577,2022-2-13T12:39:31Z
2022-02-13T10:41:01Z,42.805,6.029,13.2997,4.60022,2470.553,2022-2-13T12:42:34Z
2022-02-13T10:44:04Z,42.805,6.029,13.2995,4.60022,2470.577,2022-2-13T12:45:37Z
2022-02-13T10:47:07Z,42.805,6.029,13.2994,4.60021,2470.544,2022-2-13T12:48:40Z
2022-02-13T10:50:10Z,42.805,6.029,13.2994,4.60022,2470.591,2022-2-13T12:51:44Z
2022-02-13T10:53:13Z,42.805,6.029,13.2995,4.60022,2470.553,2022-2-13T12:54:47Z
2022-02-13T10:56:16Z,42.805,6.029,13.2993,4.60022,2470.567,2022-2-13T12:57:50Z
2022-02-13T10:59:20Z,42.805,6.029,13.2994,4.60023,2470.544,2022-2-13T13:00:53Z
2022-02-13T11:02:23Z,42.805,6.029,13.2994,4.60023,2470.567,2022-2-13T13:03:56Z
2022-02-13T11:05:26Z,42.805,6.029,13.2995,4.60022,2470.577,2022-2-13T13:06:59Z
2022-02-13T11:08:29Z,42.805,6.029,13.2993,4.60022,2470.544,2022-2-13T13:10:02Z
2022-02-13T11:11:32Z,42.805,6.029,13.2996,4.60022,2470.544,2022-2-13T13:13:05Z
2022-02-13T11:14:35Z,42.805,6.029,13.2995,4.60022,2470.553,2022-2-13T13:16:09Z
2022-02-13T11:17:38Z,42.805,6.029,13.2999,4.60022,2470.553,2022-2-13T13:19:12Z
2022-02-13T11:20:41Z,42.805,6.029,13.2995,4.60022,2470.507,2022-2-13T13:22:15Z
2022-02-13T11:23:45Z,42.805,6.029,13.2995,4.60023,2470.52,2022-2-13T13:25:18Z
2022-02-13T11:26:48Z,42.805,6.029,13.2997,4.60023,2470.553,2022-2-13T13:28:21Z
2022-02-13T11:29:51Z,42.805,6.029,13.2991,4.60024,2470.53,2022-2-13T13:31:24Z
2022-02-13T11:32:54Z,42.805,6.029,13.2996,4.60021,2470.53,2022-2-13T13:34:27Z
2022-02-13T11:35:57Z,42.805,6.029,13.2996,4.60023,2470.507,2022-2-13T13:37:30Z
2022-02-13T11:39:00Z,42.805,6.029,13.2996,4.60022,2470.553,2022-2-13T13:40:34Z
2022-02-13T11:42:03Z,42.805,6.029,13.2995,4.60021,2470.53,2022-2-13T13:43:37Z
2022-02-13T11:45:06Z,42.805,6.029,13.2996,4.60022,2470.53,2022-2-13T13:46:40Z
2022-02-13T11:48:10Z,42.805,6.029,13.2994,4.60023,2470.507,2022-2-13T13:49:43Z
2022-02-13T11:51:13Z,42.805,6.029,13.2996,4.60022,2470.507,2022-2-13T13:52:46Z
2022-02-13T11:54:16Z,42.805,6.029,13.2997,4.60024,2470.507,2022-2-13T13:55:49Z
2022-02-13T11:57:19Z,42.805,6.029,13.2998,4.60025,2470.53,2022-2-13T13:58:52Z
2022-02-13T12:00:22Z,42.805,6.029,13.2996,4.60023,2470.507,2022-2-13T14:01:56Z
2022-02-13T12:03:25Z,42.805,6.029,13.2994,4.60023,2470.544,2022-2-13T14:04:59Z
2022-02-13T12:06:28Z,42.805,6.029,13.2994,4.60023,2470.53,2022-2-13T14:08:02Z
2022-02-13T12:09:32Z,42.805,6.029,13.2998,4.60025,2470.553,2022-2-13T14:11:05Z
2022-02-13T12:12:35Z,42.805,6.029,13.2998,4.60024,2470.53,2022-2-13T14:14:08Z
2022-02-13T12:15:38Z,42.805,6.029,13.2996,4.60024,2470.544,2022-2-13T14:17:11Z
2022-02-13T12:18:41Z,42.805,6.029,13.2996,4.60023,2470.553,2022-2-13T14:20:14Z
2022-02-13T12:21:44Z,42.805,6.029,13.2998,4.60022,2470.507,2022-2-13T14:23:17Z
2022-02-13T12:24:47Z,42.805,6.029,13.2996,4.60024,2470.507,2022-2-13T14:26:21Z
2022-02-13T12:27:50Z,42.805,6.029,13.2996,4.60023,2470.53,2022-2-13T14:29:24Z
2022-02-13T12:30:53Z,42.805,6.029,13.2998,4.60024,2470.483,2022-2-13T14:32:27Z
2022-02-13T12:33:57Z,42.805,6.029,13.2995,4.60025,2470.53,2022-2-13T14:35:30Z
2022-02-13T12:37:00Z,42.805,6.029,13.2996,4.60024,2470.507,2022-2-13T14:38:33Z
2022-02-13T12:40:03Z,42.805,6.029,13.2999,4.60023,2470.507,2022-2-13T14:41:36Z
2022-02-13T12:43:06Z,42.805,6.029,13.2995,4.60023,2470.53,2022-2-13T14:44:39Z
2022-02-13T12:46:09Z,42.805,6.029,13.2993,4.60024,2470.52,2022-2-13T14:47:42Z
2022-02-13T12:49:12Z,42.805,6.029,13.2998,4.60024,2470.53,2022-2-13T14:50:46Z
2022-02-13T12:52:15Z,42.805,6.029,13.2993,4.60026,2470.483,2022-2-13T14:53:49Z
2022-02-13T12:55:18Z,42.805,6.029,13.2998,4.60024,2470.52,2022-2-13T14:56:52Z
2022-02-13T12:58:22Z,42.805,6.029,13.2994,4.60023,2470.507,2022-2-13T14:59:55Z
2022-02-13T13:01:25Z,42.805,6.029,13.2994,4.60024,2470.483,2022-2-13T15:02:58Z
2022-02-13T13:04:28Z,42.805,6.029,13.2996,4.60023,2470.483,2022-2-13T15:06:01Z
2022-02-13T13:07:31Z,42.805,6.029,13.2996,4.60024,2470.507,2022-2-13T15:09:04Z
2022-02-13T13:10:34Z,42.805,6.029,13.2998,4.60024,2470.507,2022-2-13T15:12:07Z
2022-02-13T13:13:37Z,42.805,6.029,13.2998,4.60024,2470.507,2022-2-13T15:15:11Z
2022-02-13T13:16:40Z,42.805,6.029,13.2997,4.60024,2470.52,2022-2-13T15:18:14Z
2022-02-13T13:19:43Z,42.805,6.029,13.2996,4.60024,2470.507,2022-2-13T15:21:17Z
2022-02-13T13:22:47Z,42.805,6.029,13.2998,4.60023,2470.507,2022-2-13T15:24:20Z
2022-02-13T13:25:50Z,42.805,6.029,13.2995,4.60023,2470.497,2022-2-13T15:27:23Z
2022-02-13T13:28:53Z,42.805,6.029,13.2995,4.60022,2470.52,2022-2-13T15:30:26Z
2022-02-13T13:31:56Z,42.805,6.029,13.2996,4.60023,2470.53,2022-2-13T15:33:29Z
2022-02-13T13:34:59Z,42.805,6.029,13.2996,4.60022,2470.507,2022-2-13T15:36:32Z
2022-02-13T13:38:02Z,42.805,6.029,13.2998,4.60022,2470.497,2022-2-13T15:39:36Z
2022-02-13T13:41:05Z,42.805,6.029,13.2998,4.60025,2470.497,2022-2-13T15:42:39Z
2022-02-13T13:44:09Z,42.805,6.029,13.2996,4.60025,2470.52,2022-2-13T15:45:42Z
2022-02-13T13:47:12Z,42.805,6.029,13.2996,4.60025,2470.483,2022-2-13T15:48:45Z
2022-02-13T13:50:15Z,42.805,6.029,13.2997,4.60024,2470.47,2022-2-13T15:51:48Z
2022-02-13T13:53:18Z,42.805,6.029,13.2998,4.60027,2470.507,2022-2-13T15:54:51Z
2022-02-13T13:56:21Z,42.805,6.029,13.2998,4.60024,2470.544,2022-2-13T15:57:54Z
2022-02-13T13:59:24Z,42.805,6.029,13.2997,4.60023,2470.52,2022-2-13T16:00:58Z
2022-02-13T14:02:27Z,42.805,6.029,13.2998,4.60023,2470.507,2022-2-13T16:04:01Z
2022-02-13T14:05:30Z,42.805,6.029,13.3000,4.60024,2470.483,2022-2-13T16:07:04Z
2022-02-13T14:08:34Z,42.805,6.029,13.2993,4.60025,2470.52,2022-2-13T16:10:07Z
2022-02-13T14:11:37Z,42.805,6.029,13.3000,4.60024,2470.483,2022-2-13T16:13:10Z
2022-02-13T14:14:40Z,42.805,6.029,13.2996,4.60026,2470.507,2022-2-13T16:16:13Z
2022-02-13T14:17:43Z,42.805,6.029,13.2998,4.60024,2470.52,2022-2-13T16:19:16Z
2022-02-13T14:20:46Z,42.805,6.029,13.3002,4.60024,2470.544,2022-2-13T16:22:19Z
2022-02-13T14:23:49Z,42.805,6.029,13.2997,4.60025,2470.497,2022-2-13T16:25:23Z
2022-02-13T14:26:52Z,42.805,6.029,13.2999,4.60026,2470.507,2022-2-13T16:28:26Z
2022-02-13T14:29:55Z,42.805,6.029,13.2996,4.60024,2470.544,2022-2-13T16:31:29Z
2022-02-13T14:32:59Z,42.805,6.029,13.2997,4.60024,2470.544,2022-2-13T16:34:32Z
2022-02-13T14:36:02Z,42.805,6.029,13.2999,4.60026,2470.53,2022-2-13T16:37:35Z
2022-02-13T14:39:05Z,42.805,6.029,13.2994,4.60024,2470.483,2022-2-13T16:40:38Z
2022-02-13T14:42:08Z,42.805,6.029,13.2997,4.60026,2470.507,2022-2-13T16:43:41Z
2022-02-13T14:45:11Z,42.805,6.029,13.3001,4.60025,2470.53,2022-2-13T16:46:44Z
2022-02-13T14:48:14Z,42.805,6.029,13.2998,4.60026,2470.52,2022-2-13T16:49:48Z
2022-02-13T14:51:17Z,42.805,6.029,13.3000,4.60026,2470.53,2022-2-13T16:52:51Z
2022-02-13T14:54:20Z,42.805,6.029,13.3000,4.60026,2470.507,2022-2-13T16:55:54Z
2022-02-13T14:57:24Z,42.805,6.029,13.2997,4.60026,2470.53,2022-2-13T16:58:57Z
2022-02-13T15:00:27Z,42.805,6.029,13.2998,4.60025,2470.53,2022-2-13T17:02:00Z
2022-02-13T15:03:30Z,42.805,6.029,13.2996,4.60027,2470.553,2022-2-13T17:05:03Z
2022-02-13T15:06:33Z,42.805,6.029,13.3000,4.60026,2470.553,2022-2-13T17:08:06Z
2022-02-13T15:09:36Z,42.805,6.029,13.2999,4.60026,2470.53,2022-2-13T17:11:09Z
2022-02-13T15:12:39Z,42.805,6.029,13.2997,4.60025,2470.53,2022-2-13T17:14:13Z